This is the latest recevied weather packets stored in our database for station/object DH8TOM-2. If no packets are shown the sender has not sent any weather packets the latest 10 day(s).
| Time | Temp. | Humidity | Pressure | Rain* | Wind** | Luminosity | Snow |
|---|---|---|---|---|---|---|---|
| 1777536767 | 12.78° C | 42% | 1023 hPa | 0 mm | - | - | - |
| 1777536466 | 12.78° C | 42% | 1023 hPa | 0 mm | - | - | - |
| 1777536165 | 12.78° C | 43% | 1023 hPa | 0 mm | - | - | - |
| 1777535864 | 12.78° C | 43% | 1023 hPa | 0 mm | - | - | - |
| 1777535562 | 12.22° C | 42% | 1023 hPa | 0 mm | - | - | - |
| 1777535262 | 12.22° C | 42% | 1023 hPa | 0 mm | - | - | - |
| 1777534961 | 12.22° C | 45% | 1022.9 hPa | 0 mm | - | - | - |
| 1777534660 | 12.22° C | 45% | 1022.9 hPa | 0 mm | - | - | - |
| 1777534359 | 11.67° C | 46% | 1022.9 hPa | 0 mm | - | - | - |
| 1777534058 | 11.67° C | 46% | 1022.9 hPa | 0 mm | - | - | - |
| 1777533757 | 11.11° C | 47% | 1022.9 hPa | 0 mm | - | - | - |
| 1777533456 | 11.11° C | 47% | 1022.9 hPa | 0 mm | - | - | - |
| 1777533155 | 10.56° C | 45% | 1022.8 hPa | 0 mm | - | - | - |
| 1777532853 | 10.56° C | 44% | 1022.9 hPa | 0 mm | - | - | - |
| 1777532553 | 10° C | 47% | 1022.9 hPa | 0 mm | - | - | - |
| 1777532252 | 10° C | 47% | 1022.9 hPa | 0 mm | - | - | - |
| 1777531951 | 9.44° C | 48% | 1022.8 hPa | 0 mm | - | - | - |
| 1777531650 | 9.44° C | 48% | 1022.8 hPa | 0 mm | - | - | - |
| 1777531349 | 9.44° C | 48% | 1022.8 hPa | 0 mm | - | - | - |
| 1777531048 | 9.44° C | 48% | 1022.8 hPa | 0 mm | - | - | - |
| 1777530748 | 8.89° C | 50% | 1022.8 hPa | 0 mm | - | - | - |
| 1777530446 | 8.89° C | 50% | 1022.8 hPa | 0 mm | - | - | - |
| 1777530145 | 8.33° C | 51% | 1022.8 hPa | 0 mm | - | - | - |
| 1777529844 | 8.33° C | 51% | 1022.8 hPa | 0 mm | - | - | - |
| 1777529542 | 7.78° C | 51% | 1022.7 hPa | 0 mm | - | - | - |
* Rain latest hour (hover to see other rain measurements)
** Current wind speed in m/s (hover to see current wind gust speed)